Location: Invercargill
(46.4000°S, 168.3500°E)
Time: 09:06:47
(UTC+13:00)

Cosmos 540 Rocket - Pass Details

Date: 24 January 2019
Orbit: 741 x 753 km, 74.1° (Epoch: 21 February)

Event Time Altitude Azimuth Distance (km) Brightness Sun altitude
Rises 22:06:45 0° 197° (SSW) 3,247 7.7 -6.1°
Reaches altitude 10° 22:09:18 10° 189° (S) 2,314 6.7 -6.5°
Maximum altitude 22:14:12 38° 120° (ESE) 1,151 4.3 -7.2°
Drops below altitude 10° 22:19:02 10° 52° (NE) 2,284 5.3 -7.8°
Enters shadow 22:19:07 10° 51° (NE) 2,316 5.3 -7.8°
